Location: Buttermere
(51.3333°N, 1.5167°W)
Time: 13:24:36
(UTC+00:00)

NOSS 3-2 (C) - Pass Details

Date: 18 September 2020
Orbit: 795 x 1418 km, 63.4° (Epoch: 02 October)

Event Time Altitude Azimuth Distance (km) Brightness Sun altitude
Rises 18:41:24 0° 309° (NW) 3,786 7.8 -5.3°
Reaches altitude 10° 18:44:00 10° 316° (NW) 2,920 6.9 -5.7°
Maximum altitude 18:50:46 47° 29° (NNE) 1,548 4.5 -6.7°
Drops below altitude 10° 18:58:31 10° 102° (ESE) 3,341 5.6 -7.9°
Enters shadow 18:58:45 - 102° (ESE) 3,415 5.6 -8.0°
